Temp
20 20 19 21 21 22 22 22 22 23 23 24 24 24 25 26 27 27 26 30 31 30 29 29 29 28 27 26 24 24 25 26 30 31 31 32 31 31 32 29 30 30 29 28 26
20 20 20 21 21 22 22 23 23 23 23 24 24 24 25 27 27 26 31 31 30 31 29 29 27 26 23 26 25 25 25 28 31 30 32 32 32 32 30 28 28 29 29 29 27
19 20 20 21 22 22 23 23 23 23 24 24 24 25 25 26 26 29 32 31 31 30 30 30 28 28 24 27 26 27 27 31 32 30 34 33 33 33 30 28 28 28 28 29 28
20 21 20 21 22 23 23 23 23 24 24 24 25 25 26 26 30 32 32 31 30 29 29 29 30 27 27 28 28 26 30 31 34 33 34 32 34 33 31 30 29 29 29 29 28
20 21 21 22 22 23 23 23 24 24 24 25 25 25 25 26 28 32 31 30 30 29 29 30 28 27 29 29 30 29 32 34 35 35 34 35 32 33 31 30 30 30 29 29 28
20 21 21 22 22 23 23 23 24 24 24 25 25 25 25 28 32 32 31 30 30 29 29 30 30 29 29 30 28 31 31 34 33 33 34 33 32 32 30 30 30 30 29 28 28
20 21 22 22 23 23 23 24 24 24 24 25 24 24 24 27 32 32 31 31 30 31 29 30 31 30 29 31 33 32 33 34 34 33 33 33 31 30 31 30 30 29 29 29 28
20 22 22 22 23 23 24 24 24 24 24 25 24 23 25 32 32 31 31 31 32 31 31 32 31 31 31 30 31 30 29 27 32 33 33 30 28 31 31 30 29 29 30 30 29
20 21 22 22 23 24 24 24 24 24 24 24 24 24 27 31 30 32 32 32 32 32 33 34 32 29 29 27 27 27 28 27 30 32 31 30 29 30 30 30 29 30 30 30 29
19 21 22 23 24 24 24 24 24 24 24 23 24 26 28 32 32 33 33 33 33 32 30 29 26 24 25 24 26 27 29 28 29 31 32 28 30 30 27 29 30 29 30 30 29
19 21 23 23 24 25 24 25 23 24 23 26 27 29 33 33 34 34 34 34 30 27 26 26 26 24 25 25 27 29 30 29 31 31 30 30 29 28 27 27 26 27 29 29 29
17 21 23 24 25 25 24 21 26 30 27 26 29 29 32 34 33 34 34 29 28 28 26 26 26 26 30 30 29 29 28 28 28 29 30 27 27 26 26 27 25 26 27 27 27
18 21 24 24 25 25 25 26 30 30 28 31 30 30 32 34 33 32 29 28 27 27 26 26 28 29 29 29 28 28 28 28 29 28 27 25 27 25 27 26 26 27 27 26 26
19 21 24 24 23 24 25 33 32 29 25 29 32 33 34 33 33 35 30 28 26 28 26 26 29 29 27 28 29 25 29 30 29 27 27 25 26 25 24 25 25 27 27 27 25
21 22 24 24 24 24 32 31 31 29 27 33 33 36 33 32 33 34 33 30 26 26 26 30 30 28 28 28 26 27 30 29 30 27 25 26 24 25 23 24 25 26 26 25 24
23 23 25 25 24 31 30 32 31 26 27 32 33 33 32 33 34 34 33 30 28 27 26 27 31 31 32 32 29 30 29 27 26 24 25 26 26 25 23 25 26 25 24 24 24
24 25 25 24 27 30 30 27 25 26 32 32 32 33 31 32 33 33 32 31 29 28 26 29 30 32 32 28 28 27 25 25 27 25 25 24 25 26 24 25 25 23 22 22 21
25 26 26 28 31 30 29 25 28 30 33 34 32 31 31 32 32 33 32 31 31 29 27 29 29 31 30 31 31 28 26 26 28 27 26 25 25 26 25 24 25 23 23 23 22
27 27 27 31 31 29 23 24 27 32 34 34 33 32 31 32 33 32 30 32 31 31 30 27 29 31 30 27 29 28 27 28 29 27 24 23 25 24 23 23 24 23 22 22 22
27 26 27 32 32 29 22 24 29 33 34 32 31 32 32 32 33 30 32 32 33 33 30 29 30 30 32 31 30 30 31 30 26 29 30 26 27 25 22 23 23 22 22 22 21
26 23 31 32 30 22 24 25 31 34 35 34 33 32 32 32 32 31 32 34 33 31 28 28 28 31 32 30 31 29 27 28 26 24 26 27 27 27 24 23 22 21 21 21 20
21 24 33 32 25 20 25 29 32 34 32 34 34 33 33 31 32 31 32 34 34 33 32 31 25 28 31 31 32 30 30 26 25 27 24 24 25 22 23 23 21 20 19 19 19
20 21 32 33 25 24 26 30 33 34 34 33 33 33 31 32 32 31 32 34 34 32 32 31 26 25 26 27 29 31 30 27 24 22 25 24 25 24 23 22 20 19 18 18 18
20 24 23 23 23 29 29 29 31 32 34 34 33 32 31 30 30 31 30 33 32 32 28 26 24 25 24 26 27 29 29 30 27 25 25 25 24 23 23 20 19 18 18 18 18
20 23 24 24 26 26 29 31 30 31 30 28 29 29 30 27 27 28 28 28 30 28 29 26 28 29 28 27 29 29 29 28 28 27 28 28 25 23 23 20 19 18 19 20 19
20 20 19 21 23 26 26 31 29 30 31 29 28 29 28 29 29 29 28 28 30 29 30 25 27 28 28 28 29 29 28 28 29 29 29 24 23 20 20 19 19 20 20 20 19
20 22 19 20 23 24 25 30 29 29 30 30 29 28 28 30 30 30 27 26 27 29 27 26 25 24 25 27 27 26 28 28 27 26 26 23 22 21 21 21 20 20 20 20 20
Height
793 791 789 788 785 783 782 780 779 779 778 778 779 779 779 779 779 778 776 771 771 771 771 772 774 779 777 785 784 788 809 812 792 788 786 765 774 774 772 782 783 782 787 792 799
793 790 788 787 784 782 781 780 778 778 778 777 778 779 779 778 777 775 770 769 772 771 772 774 776 775 779 790 790 797 812 797 773 771 777 769 769 774 784 793 793 791 793 795 801
792 789 786 785 783 780 779 778 778 776 776 776 777 778 778 778 778 768 764 769 771 773 773 773 774 772 792 788 791 793 802 776 771 769 764 769 771 765 784 799 788 794 795 797 801
790 788 785 783 782 780 778 777 777 776 775 776 777 777 777 778 791 765 765 769 770 772 773 773 775 781 791 795 786 800 775 771 765 766 763 773 763 772 774 782 780 783 788 793 797
789 786 784 782 780 779 777 776 775 775 775 775 776 777 777 780 773 764 766 769 770 772 774 774 778 782 790 786 785 795 772 760 758 758 761 760 773 771 778 778 783 786 790 793 795
787 784 782 780 778 777 776 775 775 774 775 775 776 776 777 785 763 763 766 769 772 774 773 772 774 774 781 782 791 778 777 765 763 765 763 773 775 773 783 780 786 788 791 792 794
785 782 780 778 776 775 775 774 774 774 774 775 776 776 778 772 762 764 766 768 772 771 772 769 770 772 776 782 772 773 779 768 767 766 772 766 787 788 779 781 786 788 789 790 790
782 780 778 777 775 774 774 773 773 774 774 775 776 777 775 760 763 764 766 768 768 769 770 773 774 773 779 775 779 789 791 818 780 772 771 777 812 783 777 781 786 785 784 786 788
780 777 776 774 774 773 772 773 773 774 774 775 776 777 775 758 762 761 763 764 765 767 767 768 768 779 785 803 812 807 819 819 799 775 781 786 805 783 775 778 785 785 784 784 787
778 775 774 772 772 772 772 773 774 775 775 776 777 782 764 760 758 759 760 762 764 765 771 775 783 806 805 819 839 824 816 812 808 783 778 797 795 787 790 791 788 786 783 782 783
774 772 771 771 771 771 772 773 777 779 776 768 765 764 755 755 756 758 757 762 766 778 799 788 806 830 817 815 811 805 804 808 792 780 795 796 798 797 793 791 798 794 787 785 783
772 770 769 769 770 770 771 772 764 765 775 755 758 759 754 755 761 756 758 774 780 795 794 803 818 808 794 791 800 806 810 809 801 790 791 805 809 802 794 788 791 791 787 787 788
769 768 767 768 768 769 768 762 759 762 774 755 750 754 747 749 760 760 760 773 782 794 800 806 800 793 794 799 807 802 808 806 805 799 801 814 815 810 795 788 776 775 776 777 783
767 766 767 768 771 768 764 757 758 761 801 777 756 748 746 746 764 750 754 768 788 793 795 797 781 792 802 804 792 819 781 784 800 813 832 818 842 816 799 793 785 775 775 774 782
766 765 766 768 767 767 759 759 759 761 831 760 754 735 740 755 754 758 752 763 790 792 795 789 781 796 801 795 797 798 784 790 797 813 822 821 837 808 799 800 787 779 781 780 783
764 764 765 767 766 761 758 754 756 807 829 771 748 754 760 754 753 751 757 758 771 788 790 785 768 773 772 770 778 779 789 803 807 824 844 810 817 812 808 786 783 784 780 778 778
763 763 765 765 762 760 758 756 808 826 761 772 766 756 764 765 761 761 771 778 789 807 808 783 778 763 761 792 785 791 806 836 837 843 841 816 822 799 789 779 778 787 787 785 782
762 762 762 762 760 760 759 783 813 784 771 749 757 764 774 763 761 760 769 781 768 776 798 802 811 774 762 768 778 786 797 827 839 839 829 814 826 793 776 778 777 779 779 773 767
762 762 761 758 760 763 775 814 805 774 755 759 761 778 780 764 761 764 772 768 760 758 790 805 798 761 758 766 768 792 805 774 802 804 828 821 800 785 782 789 785 790 788 781 781
762 761 758 757 760 764 791 805 782 754 748 755 782 770 785 776 772 775 772 757 756 747 749 772 794 766 756 756 760 771 763 796 806 821 821 816 802 800 793 792 790 794 788 786 791
762 768 753 756 761 777 804 796 767 746 743 758 767 774 773 776 772 779 774 755 745 753 753 765 784 781 764 776 779 782 793 787 795 813 826 824 806 768 774 777 787 791 785 787 788
764 779 753 755 782 792 793 771 752 748 744 748 749 758 766 768 771 774 773 757 738 742 763 758 792 804 780 760 752 762 778 795 823 817 817 819 808 775 771 772 780 788 786 788 788
772 771 754 755 795 794 776 765 750 749 751 754 758 755 757 766 777 768 763 741 736 746 757 756 796 821 808 785 766 771 770 778 794 810 812 822 809 773 777 783 788 788 790 791 793
771 783 769 764 772 773 777 773 767 745 747 745 754 751 762 769 763 773 772 751 742 744 749 755 792 804 826 807 789 787 775 770 783 809 807 802 794 785 781 786 788 791 793 794 797
774 785 780 792 778 774 767 764 770 771 756 756 766 769 770 789 784 783 773 767 752 753 754 767 791 783 783 781 776 777 777 775 780 779 787 775 780 773 772 780 786 788 790 793 796
787 792 784 786 779 775 775 768 774 769 764 773 778 770 771 780 778 783 777 775 770 760 762 772 791 781 788 774 772 777 772 769 766 763 764 775 782 776 774 778 782 783 785 788 790
787 785 788 788 784 785 787 772 774 766 762 762 766 771 775 766 758 758 760 764 763 766 772 775 785 796 807 780 778 795 776 769 768 764 763 786 777 773 778 778 780 782 780 778 777
Wind_Speed
14 14 14 15 13 12 10 9 8 6 6 6 5 6 7 7 6 6 5 5 7 9 7 1 4 12 11 4 3 3 3 3 4 6 8 12 12 15 10 16 9 5 12 17 33
15 14 15 14 14 12 10 8 7 6 6 6 6 5 6 7 5 9 7 4 7 9 7 3 11 16 2 3 1 2 1 5 3 2 5 16 18 11 9 10 13 17 11 18 31
17 16 16 14 13 12 10 8 6 5 5 5 4 4 4 6 2 6 5 13 8 9 4 2 7 4 4 2 1 2 4 3 6 6 7 13 14 8 18 13 22 20 16 12 17
18 16 16 15 13 11 10 7 5 5 5 4 3 3 3 2 2 2 9 13 9 8 4 2 5 3 2 4 5 3 9 9 8 11 10 10 10 9 14 10 20 21 19 15 9
18 16 16 15 13 11 9 7 5 5 4 3 1 1 1 1 7 2 14 13 11 8 3 3 5 3 1 1 4 3 7 6 7 6 4 13 5 7 13 20 18 18 17 15 12
18 17 16 15 13 10 8 5 5 4 3 1 0 1 1 2 4 9 13 13 10 10 4 5 5 6 3 1 4 5 11 11 7 6 10 10 3 8 16 20 18 18 15 13 12
18 16 16 14 13 9 6 5 4 4 3 1 2 2 0 9 5 15 13 11 12 14 4 14 11 5 2 3 4 10 9 4 4 7 4 10 5 10 18 19 19 16 14 13 11
20 17 15 13 11 8 5 4 3 2 1 2 2 2 6 2 9 13 11 7 14 15 17 5 9 3 1 5 5 4 4 4 4 7 3 7 4 4 19 19 17 17 15 14 10
20 16 14 12 10 6 4 1 1 1 3 3 2 1 7 3 13 12 14 7 13 14 11 6 2 3 5 7 3 5 1 2 6 3 3 4 3 6 12 17 16 15 14 12 7
19 15 12 11 7 4 2 1 1 3 3 2 2 2 5 6 12 13 16 16 4 3 4 6 5 4 4 8 4 3 2 1 4 1 13 4 1 7 5 8 8 12 13 12 11
19 13 10 8 5 2 3 2 3 2 4 7 6 5 1 9 13 13 16 8 4 8 3 5 6 6 4 10 8 6 3 5 5 6 2 5 4 3 6 8 7 9 6 7 9
17 11 8 5 3 2 4 3 7 4 6 14 8 8 13 10 6 8 8 5 4 2 2 4 5 4 2 4 3 3 4 5 4 4 4 14 7 1 5 5 6 6 3 2 5
16 9 5 4 2 3 8 14 5 12 1 6 7 5 6 14 8 8 7 3 1 3 4 5 10 7 9 4 1 9 4 4 4 3 12 5 6 4 3 9 11 10 8 5 3
14 7 3 3 2 1 7 8 17 3 5 6 2 5 5 5 3 9 10 7 4 3 3 4 4 15 10 4 7 1 9 13 9 4 3 2 4 7 9 5 8 14 10 7 6
12 6 4 8 1 4 6 20 22 4 4 3 4 7 9 8 5 6 11 5 9 8 4 6 3 11 9 9 8 9 10 1 3 4 6 5 3 7 5 5 10 10 3 4 5
9 4 3 4 8 7 23 23 2 6 4 3 8 6 6 3 2 15 12 8 4 3 2 8 4 3 5 4 20 2 4 3 3 3 3 5 4 4 5 6 5 7 10 11 12
7 3 6 7 3 13 22 5 5 3 4 5 6 5 7 6 3 11 11 11 6 2 6 3 3 3 0 9 5 6 4 2 3 1 6 2 5 9 5 3 13 14 10 9 10
5 1 6 15 7 14 11 5 2 5 3 1 6 4 8 7 7 7 15 11 10 6 3 4 5 7 4 5 5 2 6 5 6 5 3 2 6 6 4 7 11 15 13 17 19
5 2 5 11 10 7 5 4 6 3 3 4 5 4 5 4 5 7 10 16 11 16 9 7 6 2 5 5 5 3 5 8 3 2 3 5 4 4 2 3 8 8 11 9 4
4 3 6 8 10 2 5 4 4 4 2 6 4 2 3 3 3 5 1 4 7 5 5 7 2 6 2 4 4 6 1 4 3 2 4 3 3 5 9 8 2 3 13 14 8
2 3 4 14 8 5 2 6 5 4 4 3 1 1 3 1 2 4 3 4 4 6 7 4 3 5 4 4 4 5 4 2 2 5 5 2 5 6 11 11 14 8 10 10 10
2 2 14 16 3 1 2 5 5 3 6 2 1 1 2 4 3 5 4 2 2 2 3 2 5 0 4 3 4 5 5 5 4 8 2 4 5 7 7 10 13 11 12 8 8
2 3 7 12 2 2 6 6 5 1 1 2 3 2 3 4 5 3 5 6 5 4 6 3 1 3 10 9 4 4 1 5 4 3 1 4 5 3 5 7 6 10 10 11 8
3 3 4 4 1 2 3 5 6 8 1 1 1 4 6 6 2 4 9 5 5 3 4 8 3 6 6 8 3 7 9 4 4 2 3 6 4 5 7 7 8 7 7 8 7
3 1 2 3 4 5 0 2 6 6 5 10 9 8 3 7 6 6 4 9 8 5 6 5 2 1 4 6 2 2 5 9 4 7 4 5 10 11 13 12 6 7 7 9 8
3 3 4 3 5 5 4 3 5 5 4 4 6 7 6 4 4 3 3 3 3 6 4 3 2 1 3 6 6 3 7 7 7 4 2 7 2 4 11 10 8 11 11 11 10
7 6 3 5 6 6 5 3 6 3 4 4 4 4 4 1 1 2 4 4 6 3 2 1 3 2 6 6 5 5 7 9 6 2 4 6 4 8 10 8 10 10 12 15 16
Wind_Direction
347 343 345 342 338 336 337 334 332 329 323 316 313 319 327 312 310 272 244 251 183 175 179 152 264 53 39 60 81 126 49 281 233 137 119 115 114 160 139 134 155 215 138 144 156
346 340 338 339 337 334 336 333 328 323 318 311 316 336 337 328 314 246 216 187 154 166 183 213 89 76 44 74 59 91 164 252 124 55 101 129 133 145 128 144 109 114 128 144 143
342 338 335 336 334 331 334 330 325 317 315 312 325 340 335 336 302 247 220 214 209 178 179 212 115 100 92 115 158 167 226 233 214 164 174 138 153 129 130 144 148 148 150 155 138
341 339 334 332 331 332 330 325 317 311 308 311 332 336 346 7 154 304 162 171 178 179 199 233 141 68 141 198 186 265 241 250 96 233 176 158 154 151 147 166 154 149 151 158 166
338 337 332 329 329 329 322 316 307 301 298 307 337 350 47 45 252 224 162 162 169 178 221 199 137 146 184 214 152 224 280 298 116 125 101 105 46 153 122 140 146 146 152 169 179
336 334 329 327 327 326 317 308 295 287 283 267 277 54 65 294 251 200 172 169 163 168 216 250 200 189 130 153 146 214 258 273 151 141 101 105 101 106 139 143 150 155 167 182 186
334 331 328 327 325 323 314 300 285 272 262 198 145 96 25 237 230 174 179 183 178 188 220 254 197 66 105 333 350 310 290 122 155 142 128 110 35 123 149 151 155 165 176 194 206
335 328 326 326 323 320 310 298 274 249 209 157 150 132 246 228 180 177 185 217 211 224 237 162 218 110 47 271 3 359 50 8 337 24 72 76 237 123 157 156 166 174 182 197 212
333 326 322 323 323 320 313 297 211 142 136 131 106 80 270 72 171 190 192 212 231 237 241 344 204 73 56 15 12 344 240 273 311 131 197 85 208 233 172 167 171 177 189 199 190
334 322 318 319 320 328 333 116 108 106 139 125 270 323 279 203 184 203 214 224 248 70 53 31 48 76 46 35 299 291 189 162 248 220 1 345 319 314 31 37 185 188 193 205 165
332 317 312 312 313 332 154 149 31 16 226 197 195 210 237 228 191 204 222 185 87 56 47 328 61 88 102 203 239 287 278 181 221 358 343 236 217 274 127 73 4 330 250 225 179
335 314 299 298 280 256 208 168 211 118 298 221 217 268 274 247 165 212 199 82 60 186 86 34 108 134 97 22 182 237 232 248 7 75 108 25 342 343 46 161 189 236 182 188 340
342 318 284 261 257 251 235 242 244 335 106 289 189 194 211 169 170 213 94 144 77 97 161 146 156 125 85 87 140 259 242 200 140 19 70 42 309 328 252 232 215 213 199 170 200
347 324 245 200 126 3 263 341 314 283 59 282 202 255 152 127 170 167 142 130 46 262 27 279 138 158 142 163 182 329 249 257 123 96 150 134 273 243 224 248 272 240 210 214 98
347 322 224 195 80 204 299 320 326 132 44 184 209 167 159 155 182 177 162 62 160 181 153 257 254 155 205 228 177 231 347 359 149 188 133 211 158 262 44 270 247 254 308 9 54
344 314 212 212 258 273 330 335 356 52 260 218 183 141 118 230 199 165 184 69 115 93 290 257 31 298 220 38 188 70 4 329 63 77 328 231 128 255 205 216 121 43 28 14 351
346 275 196 193 231 327 346 20 46 128 295 186 166 147 162 219 240 171 176 205 174 149 239 328 291 202 125 127 160 172 114 31 337 120 224 148 116 252 169 143 132 117 99 95 27
11 297 236 233 261 312 356 52 82 244 233 44 153 129 175 191 245 165 179 209 239 208 110 166 298 198 176 177 213 48 140 171 206 218 235 337 227 254 102 136 131 142 137 137 122
21 355 265 235 245 289 65 61 216 271 335 23 50 102 302 303 196 218 182 207 220 207 195 167 249 275 189 148 165 143 177 191 210 12 111 202 279 281 146 155 115 145 137 124 156
341 318 264 183 213 91 73 238 254 275 57 46 62 84 38 312 18 147 220 290 252 211 177 216 80 229 79 97 267 200 352 355 15 259 274 264 262 235 197 165 94 234 113 118 105
57 37 212 183 196 53 158 235 273 275 55 84 267 327 293 71 136 13 313 279 15 34 73 100 99 282 135 185 178 6 15 284 140 145 215 202 251 322 186 167 154 147 103 102 103
37 44 172 170 60 90 205 208 278 331 22 306 308 65 359 9 39 48 359 256 315 68 93 288 128 59 264 243 207 148 165 118 96 308 293 178 286 344 127 141 140 131 119 105 92
86 253 194 173 143 285 291 287 228 127 38 34 24 46 56 19 10 16 344 276 158 134 160 198 41 25 343 347 5 51 358 148 146 110 264 96 271 41 64 83 105 116 111 113 115
78 39 331 38 144 184 300 311 346 340 32 57 47 50 19 348 56 333 349 337 315 49 107 85 104 150 192 219 210 312 341 5 115 114 207 206 212 236 207 133 114 103 100 105 101
34 317 168 298 316 317 224 304 342 356 18 19 14 13 302 26 22 11 350 347 8 18 22 80 33 18 238 237 208 234 328 328 335 251 184 246 192 211 184 141 120 105 112 116 127
68 39 345 282 311 9 356 340 68 349 20 20 56 17 46 109 147 306 19 31 272 348 25 12 289 148 279 290 328 319 316 324 322 307 121 127 270 324 107 120 131 155 159 158 163
357 349 98 295 341 36 324 352 47 21 333 120 59 39 17 343 146 239 206 221 219 218 263 167 122 59 274 275 341 352 285 283 283 358 264 186 160 132 122 146 172 182 184 182 178